TKJ8GQ LGAV-LTFJ

Flight info

Callsign TKJ8GQ
Flight time N/A
Altitude 35000
Route KRO UN604 INBET UY213 VUTZO
Aircraft A21N/M-SDE3FGHIRWY/LB1

Departure

Time 2026-05-04 12:31
Airport Athens Eleftherios Venizelos International Airport (LGAV)

Arrival

Time N/A
Airport Istanbul Sabiha Gökçen International Airport (LTFJ)
Time Latitude Longitude Altitude Speed Heading
2026-05-04 12:02 37.93077 23.94231 287 ft 0 kts 37°
2026-05-04 12:19 37.93068 23.94223 288 ft 2 kts 37°
2026-05-04 12:19 37.93056 23.94211 288 ft 2 kts 37°
2026-05-04 12:19 37.93044 23.94199 288 ft 2 kts 37°
2026-05-04 12:19 37.93032 23.94187 288 ft 2 kts 52°
2026-05-04 12:20 37.93025 23.94171 288 ft 2 kts 69°
2026-05-04 12:20 37.93021 23.94152 288 ft 2 kts 88°
2026-05-04 12:20 37.93023 23.94133 288 ft 2 kts 105°
2026-05-04 12:20 37.93028 23.94116 287 ft 1 kts 123°
2026-05-04 12:21 37.93033 23.94109 287 ft 1 kts 129°
2026-05-04 12:21 37.93034 23.94107 287 ft 0 kts 128°
2026-05-04 12:24 37.93031 23.94111 287 ft 1 kts 128°
2026-05-04 12:24 37.93021 23.94129 288 ft 3 kts 128°
2026-05-04 12:24 37.93002 23.94161 288 ft 5 kts 127°
2026-05-04 12:25 37.92974 23.94206 287 ft 8 kts 126°
2026-05-04 12:25 37.92937 23.94271 287 ft 9 kts 126°
2026-05-04 12:25 37.92894 23.94343 288 ft 10 kts 128°
2026-05-04 12:25 37.92846 23.94422 287 ft 10 kts 127°
2026-05-04 12:26 37.92785 23.94455 287 ft 11 kts 199°
2026-05-04 12:26 37.92718 23.94396 288 ft 12 kts 217°
2026-05-04 12:26 37.92648 23.94329 287 ft 13 kts 217°
2026-05-04 12:26 37.92571 23.94256 287 ft 14 kts 217°
2026-05-04 12:27 37.92490 23.94181 288 ft 12 kts 216°
2026-05-04 12:27 37.92437 23.94163 287 ft 8 kts 146°
2026-05-04 12:27 37.92415 23.94212 287 ft 2 kts 90°
2026-05-04 12:29 37.92415 23.94213 287 ft 0 kts 91°
2026-05-04 12:29 37.92415 23.94226 287 ft 2 kts 91°
2026-05-04 12:29 37.92415 23.94260 287 ft 4 kts 89°
2026-05-04 12:30 37.92416 23.94313 287 ft 7 kts 88°
2026-05-04 12:30 37.92425 23.94383 287 ft 9 kts 64°
2026-05-04 12:30 37.92475 23.94444 287 ft 13 kts 38°
2026-05-04 12:30 37.92733 23.94687 288 ft 82 kts 37°
2026-05-04 12:31 37.93365 23.95285 288 ft 144 kts 38°
2026-05-04 12:31 37.94292 23.96174 426 ft 182 kts 38°
2026-05-04 12:31 37.95310 23.97157 1104 ft 183 kts 39°
2026-05-04 12:31 37.96273 23.98122 1931 ft 179 kts 40°
2026-05-04 12:32 37.97595 23.99427 2618 ft 188 kts 39°
2026-05-04 12:32 37.99456 24.01228 3095 ft 217 kts 38°
2026-05-04 12:32 38.00711 24.02436 3422 ft 235 kts 38°
2026-05-04 12:33 38.02055 24.03731 3817 ft 249 kts 38°
2026-05-04 12:33 38.03441 24.05066 4412 ft 255 kts 38°
2026-05-04 12:33 38.04846 24.06489 5069 ft 259 kts 46°
2026-05-04 12:33 38.05989 24.08315 5484 ft 272 kts 57°
2026-05-04 12:34 38.07005 24.10327 6126 ft 276 kts 58°
2026-05-04 12:34 38.08032 24.12383 6827 ft 279 kts 58°
2026-05-04 12:34 38.09103 24.14473 7501 ft 283 kts 57°
2026-05-04 12:34 38.10192 24.16549 8182 ft 285 kts 56°
2026-05-04 12:35 38.11311 24.18630 8849 ft 289 kts 56°
2026-05-04 12:35 38.12446 24.20715 9491 ft 292 kts 55°
2026-05-04 12:35 38.13613 24.22854 10133 ft 295 kts 55°
2026-05-04 12:35 38.14789 24.25010 10648 ft 302 kts 55°
2026-05-04 12:36 38.16013 24.27255 10923 ft 318 kts 55°
2026-05-04 12:36 38.17293 24.29608 11233 ft 331 kts 55°
2026-05-04 12:36 38.18623 24.32056 11745 ft 337 kts 55°
2026-05-04 12:36 38.19953 24.34506 12347 ft 340 kts 55°
2026-05-04 12:37 38.21307 24.36997 12932 ft 343 kts 55°
2026-05-04 12:37 38.22657 24.39485 13483 ft 346 kts 55°
2026-05-04 12:37 38.24027 24.42013 14027 ft 349 kts 55°
2026-05-04 12:37 38.25406 24.44558 14559 ft 353 kts 55°
2026-05-04 12:38 38.26807 24.47145 15083 ft 356 kts 55°
2026-05-04 12:38 38.28202 24.49725 15590 ft 359 kts 55°
2026-05-04 12:38 38.29634 24.52374 16094 ft 362 kts 55°
2026-05-04 12:38 38.31065 24.55025 16583 ft 365 kts 55°
2026-05-04 12:39 38.32500 24.57685 17059 ft 368 kts 55°
2026-05-04 12:39 38.33951 24.60376 17526 ft 371 kts 55°
2026-05-04 12:39 38.35425 24.63112 17985 ft 374 kts 55°
2026-05-04 12:39 38.36900 24.65853 18430 ft 377 kts 55°
2026-05-04 12:40 38.38371 24.68601 18861 ft 380 kts 56°
2026-05-04 12:40 38.39874 24.71411 19288 ft 383 kts 56°
2026-05-04 12:40 38.41350 24.74171 19694 ft 386 kts 55°
2026-05-04 12:40 38.42884 24.77038 20108 ft 388 kts 55°
2026-05-04 12:41 38.44404 24.79878 20506 ft 391 kts 55°
2026-05-04 12:41 38.45938 24.82745 20894 ft 394 kts 55°
2026-05-04 12:41 38.47458 24.85588 21273 ft 396 kts 55°
2026-05-04 12:41 38.49038 24.88543 21657 ft 399 kts 55°
2026-05-04 12:42 38.50594 24.91458 22021 ft 401 kts 55°
2026-05-04 12:42 38.52135 24.94345 22371 ft 404 kts 55°
2026-05-04 12:42 38.53756 24.97385 22730 ft 406 kts 55°
2026-05-04 12:42 38.55327 25.00336 23067 ft 409 kts 55°
2026-05-04 12:43 38.56930 25.03352 23399 ft 411 kts 55°
2026-05-04 12:43 38.58538 25.06378 23723 ft 414 kts 55°
2026-05-04 12:43 38.60147 25.09409 24042 ft 416 kts 55°
2026-05-04 12:43 38.61686 25.12308 24342 ft 419 kts 54°
2026-05-04 12:44 38.63361 25.15469 24665 ft 421 kts 54°
2026-05-04 12:44 38.65007 25.18578 24977 ft 423 kts 54°
2026-05-04 12:44 38.66651 25.21686 25281 ft 425 kts 54°
2026-05-04 12:44 38.68289 25.24781 25577 ft 427 kts 54°
2026-05-04 12:45 38.69970 25.27961 25871 ft 429 kts 54°
2026-05-04 12:45 38.71648 25.31139 26156 ft 431 kts 54°
2026-05-04 12:45 38.73329 25.34327 26436 ft 433 kts 54°
2026-05-04 12:45 38.74996 25.37491 26705 ft 435 kts 54°
2026-05-04 12:46 38.76683 25.40697 26969 ft 437 kts 54°
2026-05-04 12:46 38.78408 25.43980 27235 ft 438 kts 54°
2026-05-04 12:46 38.80106 25.47213 27492 ft 440 kts 54°
2026-05-04 12:46 38.81798 25.50438 27742 ft 442 kts 54°
2026-05-04 12:47 38.83537 25.53758 28001 ft 444 kts 54°
2026-05-04 12:47 38.85261 25.57051 28252 ft 446 kts 54°
2026-05-04 12:47 38.86989 25.60355 28495 ft 447 kts 54°
2026-05-04 12:47 38.88727 25.63682 28737 ft 449 kts 54°
2026-05-04 12:48 38.90449 25.66982 28964 ft 451 kts 55°
2026-05-04 12:48 38.92200 25.70353 29182 ft 453 kts 55°
2026-05-04 12:48 38.93948 25.73722 29399 ft 455 kts 55°
2026-05-04 12:48 38.95682 25.77064 29614 ft 457 kts 56°
2026-05-04 12:49 38.97413 25.80401 29829 ft 459 kts 56°
2026-05-04 12:49 38.99160 25.83771 30042 ft 460 kts 56°
2026-05-04 12:49 39.00935 25.87195 30253 ft 462 kts 56°
2026-05-04 12:49 39.02711 25.90624 30462 ft 464 kts 56°
2026-05-04 12:50 39.04496 25.94074 30669 ft 465 kts 56°
2026-05-04 12:50 39.06226 25.97423 30867 ft 467 kts 56°
2026-05-04 12:50 39.07830 26.00529 31049 ft 468 kts 56°
2026-05-04 12:51 39.11287 26.07224 31431 ft 471 kts 55°